Wind_Speed
8 9 8 6 6 7 8 9 10 12 11 13 13 13 14 14 12 11 9 10 12 15 21 18 20 13 10 5 4 6 5 9 6 7 5 3 3 5 10 3 7 9 4 7 9
6 6 6 7 8 9 9 12 13 13 14 16 15 17 17 20 16 6 9 12 15 12 16 15 9 8 7 6 5 10 8 10 3 2 6 5 2 6 6 8 9 12 16 19 16
6 7 9 11 12 13 15 16 16 16 16 16 17 18 19 18 14 7 10 13 15 17 21 18 11 8 7 6 6 7 12 7 2 7 3 6 7 6 6 6 3 5 11 18 13
9 10 13 16 18 19 18 17 17 17 15 13 12 13 14 12 5 6 11 12 12 15 16 12 6 8 6 6 5 4 6 3 2 4 3 5 8 6 6 9 15 16 8 14 10
14 16 17 19 21 21 20 18 17 18 16 16 16 17 16 9 9 10 13 14 16 16 7 7 6 6 5 4 5 5 3 3 4 6 5 7 6 10 11 8 15 14 16 15 13
16 18 20 21 21 21 20 17 17 16 17 16 16 17 12 3 11 9 10 9 8 6 7 8 5 10 4 1 3 3 1 2 2 5 9 13 13 11 10 10 15 9 11 12 16
18 20 21 21 20 19 18 16 16 16 16 13 12 13 8 7 9 7 11 9 9 11 10 9 8 6 5 5 6 2 5 8 3 5 11 13 19 8 7 14 15 12 13 12 14
17 18 19 19 17 16 15 15 15 13 11 11 10 10 4 3 9 6 8 6 9 11 12 11 15 18 16 8 9 3 4 11 7 14 9 11 14 5 10 13 17 14 15 18 19
16 16 17 17 17 15 14 12 12 12 9 7 8 11 4 2 6 6 5 5 7 9 11 15 18 8 13 12 10 4 11 11 12 10 10 11 20 16 14 19 21 20 16 17 21
14 14 14 16 17 16 16 14 10 9 8 6 5 4 3 2 3 5 3 5 7 12 10 11 5 4 7 12 13 12 12 13 14 12 18 17 17 16 18 16 17 18 18 18 17
13 14 13 13 15 17 16 17 10 2 6 10 4 10 4 0 4 6 4 5 7 6 4 4 6 3 6 8 9 12 14 17 15 15 21 21 22 15 12 10 9 12 12 16 14
11 11 11 11 11 13 13 6 12 3 4 6 4 3 1 3 3 9 6 4 4 3 7 5 1 5 6 7 9 13 16 14 15 20 21 23 24 14 10 8 9 2 2 4 8
10 10 10 11 10 8 5 10 10 5 4 0 1 2 5 6 6 7 7 6 3 3 5 4 5 8 6 6 12 14 7 16 21 23 9 16 14 11 6 6 10 1 3 8 15
8 9 10 10 9 8 10 9 8 4 4 3 3 6 6 6 5 8 8 5 5 2 4 2 9 6 7 6 12 12 16 21 20 18 15 16 10 7 7 6 4 1 3 8 10
5 6 8 9 8 10 9 6 3 3 2 2 4 4 4 3 4 10 8 6 2 3 2 4 9 8 8 8 14 14 20 23 23 19 16 4 7 11 7 6 5 3 9 13 19
4 4 5 5 7 9 8 5 4 2 1 2 1 2 3 6 5 6 9 9 4 6 4 6 13 7 10 12 13 18 23 20 4 4 4 8 3 16 11 4 5 8 9 16 24
4 4 5 5 5 6 6 7 2 2 1 0 0 2 1 3 3 5 4 9 7 7 4 9 7 9 10 11 11 13 17 8 5 4 5 14 14 19 22 14 10 11 17 22 25
5 4 4 5 5 5 7 4 1 1 1 5 2 3 1 3 3 5 5 0 10 5 10 5 7 2 11 13 11 13 8 4 4 4 13 27 8 11 6 16 17 18 23 18 11
4 5 5 4 4 5 8 1 1 1 3 1 4 2 2 4 3 5 6 4 6 10 6 8 1 10 17 15 8 8 6 7 9 15 9 8 15 22 10 7 9 19 20 16 25
3 4 4 3 3 5 5 3 2 7 0 2 1 2 3 3 4 6 4 5 4 13 8 5 10 7 7 15 11 9 10 5 3 3 6 11 22 18 16 20 28 27 20 22 24
2 5 0 3 3 4 1 2 2 3 3 5 1 2 2 3 5 4 3 3 3 6 9 9 6 8 16 1 11 9 13 11 13 13 5 6 9 22 37 23 15 26 33 34 32
6 1 2 3 2 4 2 3 2 1 1 1 2 3 2 5 4 3 3 4 12 11 8 8 8 12 21 10 9 8 9 12 13 13 24 29 32 16 14 12 34 41 34 38 35
3 1 2 2 4 3 2 2 3 2 1 2 2 2 4 3 3 3 4 12 12 7 7 12 4 10 9 1 2 15 25 27 29 29 22 15 24 34 42 42 39 40 38 34 28
2 3 2 2 4 2 4 2 2 2 2 2 3 4 3 2 4 4 9 8 18 17 18 14 9 8 15 20 27 31 30 34 34 35 36 33 49 41 41 41 35 32 30 29 27
6 5 3 0 3 7 4 3 2 5 5 3 3 2 2 4 9 5 7 15 13 16 18 15 18 17 24 26 26 31 33 34 37 39 37 47 39 41 37 37 34 32 35 27 29
8 8 8 7 5 2 4 3 4 5 2 3 3 5 5 7 10 15 15 13 16 15 16 18 28 30 35 36 27 28 35 44 36 29 27 31 37 36 35 34 33 28 33 43 53
12 13 11 9 9 8 5 3 3 6 8 8 7 7 12 16 18 20 23 25 26 25 26 26 31 32 28 30 30 31 22 20 22 28 29 31 40 39 33 28 30 39 50 58 47
Wind_Direction
236 231 221 198 188 185 176 165 156 148 140 129 128 116 97 90 84 75 75 81 80 86 64 39 47 42 38 22 16 342 301 112 91 29 56 12 303 305 280 294 287 262 293 244 276
196 194 179 171 167 157 154 146 142 143 137 121 114 101 92 76 62 67 89 90 85 76 92 71 60 41 50 20 1 340 87 73 73 5 335 354 281 299 322 268 303 297 285 263 271
169 165 155 139 139 143 141 138 141 138 122 109 109 101 93 87 70 70 83 92 99 89 80 70 53 61 46 46 24 19 63 77 33 283 311 302 315 294 300 292 314 258 285 289 266
145 136 131 137 142 136 135 136 134 120 115 116 106 96 90 73 79 92 93 89 84 81 43 41 60 70 59 45 54 48 64 86 281 319 341 304 277 294 284 267 271 258 253 267 274
129 130 135 140 137 135 133 128 119 113 111 108 100 93 76 66 88 90 94 82 55 32 34 77 55 35 78 45 45 56 28 39 346 351 309 324 316 293 291 260 282 279 270 266 265
123 131 137 136 136 135 131 124 117 113 111 109 110 98 86 112 84 84 88 59 70 57 36 91 74 105 30 39 34 337 12 312 312 321 324 310 300 285 295 267 293 297 296 285 281
130 135 134 134 134 131 127 126 125 124 123 129 121 106 101 106 57 62 41 64 82 86 82 82 92 46 85 338 17 360 357 273 285 324 327 298 347 247 284 260 286 273 283 265 261
127 132 132 130 130 130 132 132 131 124 116 115 102 92 83 75 112 62 88 7 66 71 68 62 68 61 49 32 23 346 320 356 6 313 308 331 309 351 305 284 285 295 279 290 299
130 132 132 132 131 130 129 128 123 114 110 110 108 81 319 76 53 73 59 69 62 56 55 72 61 47 17 337 281 355 359 344 330 314 313 310 297 300 288 281 281 280 270 272 286
123 126 129 133 131 128 121 112 106 115 107 94 106 54 305 233 61 54 42 27 34 40 355 3 20 340 18 18 16 346 339 331 319 322 305 316 303 301 296 285 275 273 281 283 280
126 121 122 129 133 131 125 110 68 25 144 149 187 197 219 291 12 342 354 16 4 351 352 328 15 40 5 360 353 331 319 322 333 329 313 306 302 301 291 275 261 252 248 246 261
137 134 130 130 136 143 146 129 150 201 102 148 134 154 99 352 29 319 343 43 358 352 330 306 191 306 345 343 335 334 319 326 321 316 311 308 295 285 243 275 292 243 289 261 281
152 150 146 146 151 143 135 137 157 141 93 319 305 353 349 333 325 333 342 340 340 3 335 351 272 301 331 333 331 337 324 325 318 326 348 342 324 201 236 257 315 337 332 334 320
150 163 165 161 162 161 149 145 145 139 141 288 347 299 333 335 347 336 349 8 10 301 311 228 281 314 323 313 324 326 313 313 318 328 323 326 290 294 165 231 172 216 270 325 314
114 141 160 172 177 185 172 166 172 150 237 251 293 288 342 16 345 315 357 13 311 277 91 284 288 307 329 291 323 306 323 324 303 300 307 321 295 47 237 226 218 275 284 301 303
155 145 146 166 180 178 178 176 146 76 151 341 32 329 18 346 352 360 9 16 11 354 315 273 315 293 294 312 318 327 327 326 307 273 284 336 278 299 335 238 234 253 263 277 298
173 179 185 186 178 180 176 154 68 284 16 349 328 35 42 340 348 7 11 20 44 355 308 315 252 299 325 340 327 325 346 338 349 207 247 10 313 270 290 285 272 263 269 305 317
204 206 202 202 202 197 179 138 271 291 263 264 318 340 342 322 324 5 1 192 357 15 325 330 306 288 300 317 317 328 345 319 308 317 313 314 273 320 310 299 293 291 297 319 309
203 209 209 199 194 186 171 141 73 357 238 360 329 313 223 358 352 10 7 39 344 8 24 338 285 335 307 317 326 322 322 293 293 277 271 256 294 302 319 300 316 317 306 275 301
167 174 184 182 173 172 144 162 286 240 22 38 333 315 326 343 356 348 350 322 6 343 12 324 303 303 300 321 305 295 303 335 241 284 295 299 302 271 310 303 297 319 314 312 318
140 93 171 178 164 153 337 193 255 261 233 123 19 326 340 349 343 341 341 337 356 340 0 307 287 281 313 287 326 306 304 277 273 286 279 292 257 289 293 309 322 319 309 301 315
112 294 279 177 120 126 183 184 188 307 317 345 71 48 53 354 354 337 317 262 315 337 356 324 308 297 304 303 279 315 308 308 287 281 277 291 283 303 320 322 303 318 311 304 303
80 79 160 150 343 246 229 211 161 72 238 58 37 351 347 356 359 355 329 309 329 346 306 313 282 318 349 214 282 317 307 301 300 296 282 266 274 292 297 308 310 308 304 301 304
274 241 280 219 97 109 135 127 298 255 303 303 303 342 349 358 326 323 312 302 328 331 321 303 292 277 276 287 301 305 303 299 298 295 294 280 289 301 308 309 311 309 301 298 293
247 241 248 307 206 178 200 165 230 333 297 309 340 342 332 300 309 340 314 302 300 295 299 299 288 293 285 289 296 297 297 296 291 292 291 293 296 304 311 313 306 301 297 304 302
220 229 237 246 233 179 246 197 205 268 187 298 320 302 301 306 311 309 299 298 295 293 289 287 279 290 289 298 302 299 290 297 292 293 288 294 296 305 309 304 301 304 303 304 308
247 255 252 250 244 246 284 265 240 231 289 290 274 288 283 280 278 284 289 292 294 290 287 276 279 285 287 296 298 301 314 306 296 301 292 294 297 302 308 300 296 297 310 311 314
Height
3122 3124 3126 3127 3129 3131 3133 3133 3135 3138 3140 3140 3142 3142 3142 3141 3142 3142 3141 3141 3140 3140 3140 3142 3141 3145 3148 3147 3147 3146 3146 3146 3146 3153 3153 3152 3154 3151 3151 3152 3150 3149 3150 3148 3149
3122 3123 3125 3127 3129 3131 3134 3134 3138 3140 3142 3141 3143 3143 3143 3143 3144 3145 3144 3143 3141 3142 3141 3144 3148 3150 3151 3151 3150 3149 3143 3146 3151 3154 3153 3154 3153 3152 3152 3152 3150 3148 3148 3147 3147
3122 3124 3126 3127 3131 3132 3135 3138 3139 3142 3143 3143 3144 3145 3145 3145 3148 3146 3147 3145 3145 3146 3145 3144 3150 3152 3152 3153 3152 3150 3146 3149 3152 3150 3152 3152 3152 3151 3151 3152 3150 3149 3146 3145 3144
3123 3124 3127 3130 3132 3134 3137 3139 3141 3142 3143 3145 3146 3146 3146 3149 3153 3149 3148 3147 3147 3147 3147 3146 3154 3153 3154 3154 3153 3153 3150 3151 3151 3150 3151 3151 3149 3150 3150 3150 3147 3146 3147 3144 3143
3125 3128 3130 3132 3134 3137 3139 3141 3142 3143 3144 3146 3147 3148 3149 3151 3151 3148 3148 3149 3147 3150 3150 3149 3153 3153 3154 3155 3154 3152 3152 3152 3151 3150 3150 3148 3148 3148 3147 3146 3143 3143 3142 3142 3141
3127 3130 3132 3135 3137 3139 3140 3142 3144 3145 3146 3148 3149 3150 3152 3154 3151 3153 3152 3150 3151 3155 3151 3149 3150 3152 3155 3154 3153 3152 3152 3152 3151 3151 3150 3147 3146 3146 3146 3145 3142 3140 3139 3139 3139
3132 3134 3135 3137 3139 3141 3142 3144 3145 3147 3149 3151 3152 3152 3153 3155 3154 3154 3153 3152 3151 3151 3150 3150 3150 3153 3153 3154 3151 3151 3150 3149 3150 3150 3149 3146 3142 3140 3142 3140 3139 3137 3136 3136 3136
3134 3136 3138 3139 3141 3143 3145 3146 3148 3150 3151 3153 3154 3154 3154 3155 3153 3154 3155 3155 3153 3152 3152 3152 3152 3153 3153 3153 3151 3150 3151 3151 3152 3148 3148 3147 3144 3145 3143 3139 3136 3135 3135 3133 3132
3137 3139 3140 3142 3143 3145 3147 3149 3150 3152 3153 3155 3156 3156 3157 3156 3155 3154 3154 3155 3153 3153 3154 3154 3152 3154 3153 3152 3153 3154 3152 3152 3151 3149 3147 3146 3142 3141 3141 3139 3136 3134 3133 3133 3131
3139 3141 3142 3143 3144 3146 3149 3151 3153 3154 3155 3156 3156 3160 3158 3157 3156 3155 3155 3154 3153 3153 3156 3155 3154 3156 3157 3154 3155 3154 3153 3152 3150 3148 3144 3142 3138 3137 3136 3134 3134 3134 3133 3131 3131
3141 3142 3143 3145 3147 3148 3150 3151 3157 3158 3156 3156 3157 3157 3157 3157 3156 3156 3155 3154 3155 3156 3157 3157 3157 3157 3156 3155 3155 3154 3152 3149 3146 3145 3142 3138 3135 3134 3133 3131 3130 3129 3129 3128 3128
3142 3144 3145 3147 3149 3150 3150 3151 3155 3158 3158 3157 3157 3157 3157 3157 3157 3156 3155 3156 3155 3157 3156 3157 3157 3155 3154 3156 3155 3153 3150 3148 3145 3143 3140 3133 3129 3130 3128 3127 3126 3126 3125 3124 3124
3144 3146 3147 3149 3150 3152 3152 3153 3156 3158 3159 3159 3158 3157 3157 3157 3156 3155 3155 3154 3154 3156 3155 3156 3155 3154 3154 3156 3153 3152 3149 3146 3144 3139 3135 3133 3124 3126 3126 3124 3123 3123 3123 3122 3120
3146 3147 3148 3149 3153 3152 3154 3155 3157 3158 3160 3162 3160 3158 3157 3156 3157 3155 3154 3155 3154 3154 3153 3155 3153 3153 3154 3154 3151 3149 3147 3144 3141 3140 3137 3134 3130 3127 3124 3123 3122 3123 3123 3121 3119
3147 3148 3149 3150 3152 3153 3155 3156 3157 3159 3160 3162 3159 3158 3157 3158 3158 3156 3154 3153 3154 3154 3155 3155 3154 3152 3153 3151 3150 3148 3144 3140 3138 3137 3135 3132 3131 3126 3124 3124 3122 3122 3121 3119 3116
3148 3149 3149 3151 3152 3153 3154 3156 3158 3161 3159 3160 3159 3159 3160 3158 3157 3157 3156 3155 3155 3154 3154 3154 3152 3152 3151 3150 3149 3146 3142 3136 3134 3135 3134 3130 3132 3124 3122 3123 3122 3121 3118 3114 3112
3149 3150 3151 3151 3153 3153 3155 3157 3160 3159 3161 3162 3161 3159 3159 3159 3159 3157 3158 3156 3157 3156 3155 3155 3152 3150 3150 3149 3149 3146 3143 3138 3136 3133 3132 3131 3132 3125 3122 3121 3119 3117 3114 3111 3108
3149 3150 3151 3151 3152 3153 3155 3158 3160 3159 3161 3159 3159 3159 3161 3159 3160 3159 3159 3159 3156 3155 3155 3154 3153 3152 3149 3149 3148 3147 3147 3146 3145 3139 3136 3131 3127 3122 3122 3118 3117 3114 3112 3109 3106
3148 3149 3150 3151 3152 3154 3156 3159 3160 3160 3159 3160 3160 3160 3161 3160 3160 3159 3158 3159 3156 3155 3157 3155 3152 3152 3148 3148 3148 3146 3147 3146 3143 3140 3139 3132 3126 3121 3119 3119 3116 3115 3111 3107 3103
3148 3149 3150 3151 3152 3154 3156 3158 3159 3157 3158 3159 3161 3160 3161 3161 3161 3160 3159 3158 3158 3156 3155 3157 3152 3149 3149 3147 3145 3146 3146 3144 3143 3141 3133 3126 3127 3120 3117 3113 3110 3110 3109 3103 3099
3150 3151 3151 3152 3153 3155 3157 3157 3156 3156 3158 3159 3160 3160 3160 3160 3160 3160 3160 3158 3156 3156 3155 3155 3154 3150 3147 3146 3146 3146 3143 3144 3141 3139 3133 3125 3120 3119 3114 3109 3111 3107 3103 3096 3092
3151 3154 3152 3153 3156 3155 3157 3157 3156 3156 3157 3157 3158 3159 3159 3160 3159 3160 3160 3158 3156 3154 3155 3152 3151 3147 3143 3141 3143 3142 3141 3141 3138 3135 3132 3125 3110 3114 3112 3110 3103 3101 3097 3092 3085
3152 3152 3153 3153 3154 3154 3155 3156 3156 3157 3157 3158 3158 3158 3158 3159 3159 3159 3158 3156 3155 3154 3152 3151 3150 3146 3142 3142 3141 3141 3139 3137 3134 3130 3125 3123 3105 3109 3107 3103 3101 3094 3087 3082 3077
3152 3153 3153 3153 3154 3155 3156 3156 3156 3157 3156 3156 3157 3157 3158 3158 3158 3157 3158 3156 3154 3152 3151 3150 3148 3149 3147 3143 3142 3137 3134 3129 3127 3122 3112 3113 3097 3102 3101 3097 3091 3085 3077 3074 3069
3150 3151 3152 3153 3154 3154 3155 3157 3158 3158 3156 3156 3157 3157 3157 3156 3156 3156 3156 3155 3153 3152 3149 3147 3144 3144 3141 3138 3136 3132 3126 3120 3117 3113 3110 3096 3100 3095 3095 3090 3081 3076 3070 3064 3060
3148 3150 3150 3151 3152 3154 3153 3156 3157 3156 3156 3157 3156 3157 3156 3156 3156 3154 3152 3151 3150 3149 3148 3144 3137 3136 3132 3131 3130 3125 3119 3111 3106 3105 3101 3096 3091 3093 3086 3079 3073 3066 3061 3056 3051
3146 3147 3148 3149 3150 3152 3153 3155 3155 3154 3153 3154 3154 3154 3153 3151 3150 3149 3147 3146 3144 3142 3140 3140 3136 3131 3125 3126 3122 3117 3109 3107 3103 3102 3098 3090 3085 3082 3077 3071 3065 3060 3055 3047 3040